Live-Position
3D-Globus wird geladen...
Über Starlink 6157
Group: 3 satellites
Beschreibung wird geladen...
Nächste Überflüge
Passes for default location (London). Set your location on the main map for personalized predictions.
Höhenverlauf
Loading altitude history...
No altitude history available
Zweizeiliger Elementsatz
1 56379U 23061F 26126.76727199 .00000786 00000-0 38081-4 0 9992
2 56379 43.0018 229.7536 0001235 261.1454 98.9258 15.27571448166734
Epoch: 6. Mai 2026 •
Age: 16 hours
Aktueller Status
Höhe 484.2 km
Geschwindigkeit 7.63 km/s
Subsatellitenpunkt 29.69°N,
17.16°W
Startdatum 4. Mai 2023
Alter 3 years
Typ internet
Startgruppe
Falcon 9 •
Group 5-6 •
50 satellites
Starlink 6156
56374
Starlink 6158 56375
Starlink 6188 56376
Starlink 6189 56377
Starlink 6191 56378
Starlink 6159 56381
Starlink 6160 56382
Starlink 6166 56383
Starlink 6153 56384
Starlink 6173 56385
Starlink 5836 56386
Starlink 6178 56387
Starlink 6176 56388
Starlink 6145 56389
Starlink 6298 56391
Starlink 6301 56392
Starlink 6303 56393
Starlink 6305 56394
Starlink 6273 56395
Starlink 6302 56396
...and 29 more
Technische Details
Klassifizierung Payload
Masse 305.00 kg
Trockenmasse 290.00 kg
Gesamtmasse 305.00 kg
Länge 0.20 m
Durchmesser 2.80 m
Spannweite 9.00 m
Form Box + pan
Hersteller SPXS
Bus-Typ Starlink
Phasenstatus In Orbit
Besitzer/Staat SPXS/US
Most Searched
Loading...